Weather History for Indianapolis, IN

Change the Weather History Date:

Saturday, July 12, 2014

  Actual Average Record
Temperature  
Mean Temperature 74 °F 76 °F  
Max Temperature 80 °F 85 °F 103 °F (1936)
Min Temperature 67 °F 66 °F 53 °F (1975)
Degree Days  
Heating Degree Days 0 0  
Month to date heating degree days 0 0  
Since 1 June heating degree days 2 16  
Since 1 July heating degree days 0 0  
Cooling Degree Days 9 11  
Month to date cooling degree days 80 129  
Year to date cooling degree days 422 439  
Since 1 June cooling degree days 318 355  
Growing Degree Days 23 (Base 50)    
Moisture  
Dew Point 65 °F    
Average Humidity 79    
Maximum Humidity 93    
Minimum Humidity 64    
Precipitation  
Precipitation 0.07 in 0.16 in 2.70 in (1876)
Month to date precipitation 0.55 1.89  
Year to date precipitation 25.02 23.54  
Snow  
Snow 0.00 in 0.00 in 0.00 in ()
Month to date snowfall 0.0 0.0  
Since 1 June snowfall 0.0 0.0  
Since 1 July snowfall 0.0 0.0  
Snow Depth 0.00 in    
Sea Level Pressure  
Sea Level Pressure 30.10 in    
Wind  
Wind Speed 9 mph (SSW)    
Max Wind Speed 18 mph    
Max Gust Speed 34 mph    
Visibility 9 miles    
Events Rain    
T = Trace of Precipitation, MM = Missing Value Source: NWS Daily Summary

Daily Weather History Graph

Daily Weather History Graph

Search for Another Location

Airport:

Trip Planner

Search our weather history database for the weather conditions in past years. The results will help you decide how hot, cold, wet, or windy it might be!

Date:

Astronomy

Jul. 12, 2014 Rise Set
Actual Time 6:27 AM EDT 9:13 PM EDT
Civil Twilight 5:55 AM EDT 9:45 PM EDT
Nautical Twilight 5:15 AM EDT 10:25 PM EDT
Astronomical Twilight 4:30 AM EDT 11:10 PM EDT
Moon 9:15 PM EDT (7/12) 6:46 AM EDT (7/12)
Length of Visible Light 15h 49m
Length of Day
14h 46m
Full, 100% of the Moon is Illuminated
Jul 12
Full
Jul 18
Last Quarter
Jul 26
New
Aug 3
First Quarter
Aug 10
Full

Hourly Weather History & Observations

Time (EDT) Temp. Dew Point Humidity Pressure Visibility Wind Dir Wind Speed Gust Speed Precip Events Conditions
12:54 AM 70.0 °F 61.0 °F 73% 30.15 in 10.0 mi SE 4.6 mph - N/A   Mostly Cloudy
1:54 AM 69.1 °F 60.1 °F 73% 30.14 in 10.0 mi SE 6.9 mph - N/A   Mostly Cloudy
2:54 AM 68.0 °F 60.1 °F 76% 30.14 in 10.0 mi ESE 5.8 mph - N/A   Mostly Cloudy
3:54 AM 69.1 °F 61.0 °F 75% 30.14 in 10.0 mi SSE 4.6 mph - N/A   Overcast
4:54 AM 68.0 °F 60.1 °F 76% 30.12 in 10.0 mi SSE 3.5 mph - N/A   Mostly Cloudy
5:54 AM 66.9 °F 61.0 °F 81% 30.12 in 10.0 mi ESE 4.6 mph - N/A   Mostly Cloudy
6:54 AM 68.0 °F 60.1 °F 76% 30.12 in 10.0 mi SSE 5.8 mph - N/A   Mostly Cloudy
7:54 AM 69.1 °F 61.0 °F 75% 30.13 in 10.0 mi South 4.6 mph - N/A   Mostly Cloudy
8:54 AM 73.0 °F 62.1 °F 68% 30.13 in 10.0 mi SSW 8.1 mph - N/A   Overcast
9:54 AM 75.9 °F 62.1 °F 62% 30.13 in 10.0 mi SSW 9.2 mph 17.3 mph N/A   Overcast
10:54 AM 75.9 °F 64.0 °F 67% 30.13 in 10.0 mi SSW 11.5 mph - N/A   Overcast
11:54 AM 75.0 °F 64.9 °F 71% 30.14 in 10.0 mi SW 10.4 mph - N/A   Overcast
12:28 PM 73.0 °F 66.9 °F 81% 30.18 in 7.0 mi WSW 9.2 mph - 0.00 in Rain Light Rain
12:54 PM 72.0 °F 68.0 °F 87% 30.18 in 3.0 mi West 9.2 mph - 0.02 in Rain Rain
1:54 PM 72.0 °F 69.1 °F 91% 30.16 in 5.0 mi WSW 5.8 mph - 0.05 in Rain Light Rain
2:54 PM 73.0 °F 70.0 °F 90% 30.11 in 7.0 mi South 9.2 mph - 0.00 in Rain Light Rain
3:54 PM 73.9 °F 69.1 °F 85% 30.08 in 9.0 mi SSW 11.5 mph - 0.00 in   Overcast
4:54 PM 75.0 °F 69.1 °F 82% 30.07 in 10.0 mi SSW 9.2 mph - N/A   Overcast
5:54 PM 78.1 °F 70.0 °F 76% 30.04 in 10.0 mi SSW 16.1 mph - N/A   Overcast
6:54 PM 78.1 °F 69.1 °F 74% 30.03 in 10.0 mi SSW 15.0 mph - N/A   Overcast
7:54 PM 77.0 °F 70.0 °F 79% 30.02 in 9.0 mi SSW 11.5 mph - 0.00 in   Overcast
8:54 PM 77.0 °F 70.0 °F 79% 30.00 in 9.0 mi SSW 11.5 mph - N/A   Overcast
9:54 PM 78.1 °F 70.0 °F 76% 29.99 in 10.0 mi SSW 10.4 mph - N/A   Mostly Cloudy
10:54 PM 73.9 °F 69.1 °F 85% 29.99 in 9.0 mi South 8.1 mph - N/A   Mostly Cloudy
11:54 PM 73.9 °F 70.0 °F 87% 29.98 in 9.0 mi SSW 10.4 mph - N/A   Mostly Cloudy